Location: Vihti�l�
(61.3833°N, 23.0667°E)
Time: 03:53:47
(UTC+00:00)

Cosmos 2344 - Pass Details

Date: 29 November 2020
Orbit: 1245 x 2998 km, 63.3° (Epoch: 19 January)

Event Time Altitude Azimuth Distance (km) Brightness Sun altitude
Exits shadow 01:42:51 87° 165° (SSE) 1,617 3.9 -36.7°
Drops below altitude 10° 01:53:52 10° 118° (ESE) 4,520 6.8 -35.5°
Sets 01:57:46 0° 118° (ESE) 5,768 7.5 -35.1°
